Regional Weather Roundup
Issued by NWS San Diego, CA

Home | Current Version | Previous Version | Text Only | Print | Product List | Glossary On
Versions: 1 2 3 4 5 6 7 8 9 10 11 12 13 14 15 16 17 18 19 20 21 22 23 24 25 26 27 28 29 30 31 32 33 34 35 36 37 38 39 40 41 42 43 44 45 46 47 48 49 50
000
ASUS46 KSGX 280204
RWRSGX

SAN DIEGO HOURLY WEATHER ROUNDUP
NATIONAL WEATHER SERVICE SAN DIEGO CA
700 PM PDT TUE JUN 27 2017

NOTE: "FAIR" INDICATES FEW OR NO CLOUDS BELOW 12,000 FEET WITH NO
SIGNIFICANT WEATHER AND/OR OBSTRUCTIONS TO VISIBILITY.

CAZ042-043-060-061-PZZ750-775-280300-

GREATER SAN DIEGO AREA

CITY           SKY/WX    TMP DP  RH WIND       PRES   REMARKS
SAN DIEGO AP   MOSUNNY   72  62  71 VRB7      29.87S
NATIONAL CITY    N/A     74  65  73 CALM      29.86S
CHULA VISTA      N/A     71  64  78 W8        29.77S
IMPERIAL BEACH MOSUNNY   68  61  78 W8        29.87S
BROWN FIELD    SUNNY     71  61  70 W7        29.85S
MIRAMAR MCAS   MOSUNNY   76  58  53 W6        29.85S
MONTGOMERY FLD SUNNY     75  57  53 NW9       29.85S
GILLESPIE FLD  SUNNY     82  57  42 VRB7      29.83S

$$

NORTH SAN DIEGO COUNTY

CITY           SKY/WX    TMP DP  RH WIND       PRES   REMARKS
CAMP PENDLETON SUNNY     70  61  73 S7        29.84S
OCEANSIDE AP   SUNNY     70  63  78 W6        29.84S
OCEANSIDE HBR    N/A     68  64  86 CALM      29.87S
VISTA            N/A     75  62  63 SW2       29.81F
CARLSBAD       SUNNY     68  62  81 W6        29.85S
DEL MAR          N/A     68  63  83 W2        29.87S
LA JOLLA SCRIP   N/A     66  64  93 W2        29.85S
FALLBROOK        N/A     77  59  54 SW2       29.84F
ESCONDIDO        N/A     82  57  42 W6        29.83S
SAN MARCOS       N/A     76  60  58 W2        29.84S
POWAY            N/A     79  58  47 W6        29.83S

$$

EAST SAN DIEGO COUNTY

CITY           SKY/WX    TMP DP  RH WIND       PRES   REMARKS
RAMONA         NOT AVBL
SANTEE LAKES     N/A     81  58  45 SW3       29.81S
LA MESA          N/A     81  60  48 W3        29.76S
JAMUL            N/A     80  61  51 CALM      29.81F
DESCANSO N       N/A     79  40  25 W8        29.74F
CAMPO            N/A     86  26  11 SW12G22   29.90R

$$

ORANGE COUNTY AND THE LOS ANGELES BASIN

CITY           SKY/WX    TMP DP  RH WIND       PRES   REMARKS
JOHN WAYNE AP  SUNNY     72  59  63 S10       29.83S
LAGUNA BEACH     N/A     71  64  79 S3        29.79F
LAKE FOREST FR   N/A     81  53  37 W2        29.70S
HUNTINGTON BCH   N/A     68  63  83 SW3       29.84F
LOS ALAMITOS   SUNNY     73  61  64 S8        29.82S
FULLERTON      SUNNY     80  54  40 S6        29.81S
LONG BEACH     SUNNY     77  51  40 W12       29.82S
L.A. AP        SUNNY     68  58  70 W14       29.84S
L.A. DOWNTOWN  SUNNY     78  54  43 W5        29.82S

$$

THE INLAND EMPIRE

CITY           SKY/WX    TMP DP  RH WIND       PRES   REMARKS
CORONA         SUNNY     83  53  35 W12       29.81S
CHINO          SUNNY     87  39  18 W14       29.83S
ONTARIO        SUNNY     88  34  14 W13       29.83S
SAN BERNARDINO SUNNY     93  32  11 W13       29.84R
RIVERSIDE AP   SUNNY     87  48  25 W8G18     29.82R
MORENO VALLEY    N/A     91  35  14 NW6       27.97S
MARCH ARB      SUNNY     90  29  11 NW14      29.85R
HORSETHIEF CYN   N/A     92  12   5 NE7       29.78S
PERRIS           N/A     91  39  16 NW10      29.82S
HEMET EAST       N/A     91  29  11 S2        29.84S
FRENCH VALLEY  NOT AVBL
TEMECULA         N/A     85  44  23 S8        29.88R

$$

SAN BERNARDINO AND RIVERSIDE COUNTY MOUNTAINS

CITY           SKY/WX    TMP DP  RH WIND       PRES   REMARKS
BIG BEAR AP    NOT AVBL
PINE COVE        N/A     72  30  21 N3        29.80S

$$

SOUTHERN DESERT INCLUDING THE COACHELLA VALLEY

CITY           SKY/WX    TMP DP  RH WIND       PRES   REMARKS
PALM SPRINGS   SUNNY    106  23   5 NW15G28   29.65S HX  98
THOUSAND PALMS   N/A    104  28   7 W17       29.61S HX  97
PALM DESERT      N/A    107  27   6 N3        27.34S HX  99
THERMAL        SUNNY    108  27   6 NW15G25   29.57S HX 100
BLYTHE         PTCLDY   110  20   4 SW20      29.61S HX 101
IMPERIAL AP    MOCLDY   103  34   9 W14       29.62S HX  96
EL CENTRO NAS  CLEAR    106   8   3 W25       29.65R HX  97
MEXICALI       CLEAR    108  14   3 W15       29.64  HX  98

$$

UPPER DESERT

CITY           SKY/WX    TMP DP  RH WIND       PRES   REMARKS
HESPERIA         N/A     85  30  14 SW10      29.84R
PALMDALE       SUNNY     88  33  14 W16       29.88S
LANCASTER      SUNNY     88  34  14 SW20G26   29.86S
EDWARDS AFB    SUNNY     90  32  12 SW22G30   29.82R
DAGGETT        SUNNY     99  18   5 SW24      29.74S
29 PALMS N     SUNNY     99  18   5 SW20G28   29.81S
NEEDLES        PTCLDY   112 -10   1 SW16      29.61F HX 101

$$

REGIONAL REPORTS

CITY           SKY/WX    TMP DP  RH WIND       PRES   REMARKS
SANTA BARBARA  SUNNY     67  59  75 SE9       29.81F
SANDBERG       SUNNY     81  22  11 VRB7      30.05S
LAS VEGAS NV   SUNNY    104   4   2 W15G21    29.69S HX  95
PHOENIX AZ     PTCLDY   106  24   5 SW8       29.66F HX  98
TIJUANA        SUNNY     70  61  73 W9        29.88S
ENSENADA NW      N/A     69  32  25 W10       29.83S

$$

OFFSHORE ISLANDS

CITY           SKY/WX    TMP DP  RH WIND       PRES   REMARKS
CATALINA ARPT  NOT AVBL
SAN CLEMENTE I CLOUDY    61  56  83 W17       29.88F
SAN NICOLAS IS PTSUNNY   58  32  37 W28G37    29.86S

$$

MARINE AND OFFSHORE BUOY REPORTS

STATION/POSITION SKY/WX   TEMP    WIND        PRES    VSBY  SWELL
                          AIR SEA DIR/SP/G                  HT/PER/DIR
                          (F)     (DEG/KT/KT) (MB)    (MI)  (FT/S/D)
TANNER BANKS               61 63  310/ 19/ 23 1011.9          3/190/14
S CLEMENTE BASIN              65  280/ 16/ 17 1011.4          3/240/14
SAN NICOLAS IS.               60                N/A           2/180/12
SO. S. ROSA ISLA           58 57  310/ 23/ 29 1011.4          2/180/14
W. S. BARBARA CH           57 56  310/ 21/ 25 1011.5S         2/220/14
M. S. BARBARA CH           61 60  270/ 17/ 19 1010.4F
S. MONICA BASIN            65 67  280/  8/ 10 1010.3S         3/270/ 6
S PEDRO CHANNEL               66                N/A           2/170/13
CMP PENDLETON NS              64                N/A           2/210/13
OCEANSIDE OFFSHR              64                N/A           2/200/14
TORREY PINES OTR              67                N/A           2/200/11
SAN DIEGO BAY                 72              1011.1F
POINT LOMA SOUTH              69                N/A           3/190/13

$$




USA.gov is the U.S. government's official web portal to all federal, state and local government web resources and services.